Date,TemperatureHighF,TemperatureAvgF,TemperatureLowF,DewpointHighF,DewpointAvgF,DewpointLowF,HumidityHigh,HumidityAvg,HumidityLow,PressureMaxIn,PressureMinIn,WindSpeedMaxMPH,WindSpeedAvgMPH,GustSpeedMaxMPH,PrecipitationSumIn
2013-1-1,26,21,15,-100,-100,-100,0,0,100,0.00,40.00,0,-999,0,0.00
2013-1-2,27,19,6,-100,-100,-100,0,0,100,0.00,40.00,0,-999,0,0.00
2013-1-3,32,23,11,-100,-100,-100,0,0,100,0.00,40.00,0,-999,0,0.00
2013-1-4,35,25,17,-100,-100,-100,0,0,100,0.00,40.00,0,-999,0,0.00
2013-1-5,33,23,9,-100,-100,-100,0,0,100,0.00,40.00,0,-999,0,0.00
2013-1-6,43,37,16,-100,-100,-100,0,0,100,0.00,40.00,0,-999,0,0.00
2013-1-7,40,35,29,-100,-100,-100,0,0,100,0.00,40.00,0,-999,0,0.00
2013-1-8,43,37,33,-100,-100,-100,0,0,100,0.00,40.00,0,-999,0,0.00
2013-1-9,49,43,36,-100,-100,-100,0,0,100,0.00,40.00,0,-999,0,0.00
2013-1-10,50,45,33,-100,-100,-100,0,0,100,0.00,40.00,0,-999,0,0.00
2013-1-11,30,13,5,-100,-100,-100,0,0,100,0.00,40.00,0,-999,0,0.00
2013-1-12,10,5,-1,-100,-100,-100,0,0,100,0.00,40.00,0,-999,0,0.00
2013-1-13,10,4,-3,-100,-100,-100,0,0,100,0.00,40.00,0,-999,0,0.00
2013-1-14,10,6,1,-100,-100,-100,0,0,100,0.00,40.00,0,-999,0,0.00
2013-1-15,29,21,9,-100,-100,-100,0,0,100,0.00,40.00,0,-999,0,0.00
2013-1-16,39,31,25,-100,-100,-100,0,0,100,0.00,40.00,0,-999,0,0.00
2013-1-17,42,34,25,-100,-100,-100,0,0,100,0.00,40.00,0,-999,0,0.00
2013-1-18,43,38,36,-100,-100,-100,0,0,100,0.00,40.00,0,-999,0,0.00
2013-1-23,54,48,43,-100,-100,-100,0,0,100,0.00,40.00,0,-999,0,0.00
2013-1-24,50,45,38,-100,-100,-100,0,0,100,0.00,40.00,0,-999,0,0.00
2013-1-25,50,42,36,-100,-100,-100,0,0,100,0.00,40.00,0,-999,0,0.00
2013-1-26,52,44,37,-100,-100,-100,0,0,100,0.00,40.00,0,-999,0,0.00
2013-1-27,49,44,41,-100,-100,-100,0,0,100,0.00,40.00,0,-999,0,0.00
2013-1-28,35,27,19,-100,-100,-100,0,0,100,0.00,40.00,0,-999,0,0.03
2013-1-29,25,18,11,-100,-100,-100,0,0,100,0.00,40.00,0,-999,0,0.01
2013-1-30,33,23,7,-100,-100,-100,0,0,100,0.00,40.00,0,-999,0,0.00
2013-1-31,42,32,20,-100,-100,-100,0,0,100,0.00,40.00,0,-999,0,0.03